TITAN 4 CENTAUR R/B, 22989

Orbit data source: Space-Track

TITAN 4 CENTAUR R/B, 22989 is space debris in GEO originally from a launch on Mon, 07 Feb 1994 UTC launched from the Air Force Eastern Test Range (AFETR). Debris objects in space refer to the collection of defunct objects orbiting the Earth. Examples of debris include non-operational satellites, rocket bodies, and fragments generated from explosions, collisions, or faulty payload assembly.

Loading next visibility...
Identifier
22989, 1994-009B
Orbit
GEO
Country
Flag of USUS
Related business
Manufacturer
LMA/San Diego
Mission
Spacecraft
Bus & Motor
CENTAUR T, Unknown motor
Mass
~2,775 kg wet, ~2,775 kg dry
Launch date (UTC)
1994-02-07 (32 years ago)
Launch vehicle
Unknown
Launch site
Air Force Eastern Test Range (AFETR)
Object type
Payload
Rocket body
Debris
Shape & HBR
Cyl, 4.5 m
Radar Cross Section
37.970 m²

Expand to show TLE details & history
Last TLE update: 2 days ago

TLE from 2 days ago
0 TITAN 4 CENTAUR R/B
1 22989U 94009B   25259.29842613 -.00000294  00000-0  00000-0 0  9996
2 22989  16.4913  25.4881 0014830 224.3717 135.5326  1.00600104 22535
Epoch: 2025-09-16T07:09Z
TLE epoch observation values (Epoch: 2025-09-16T07:09:44.017Z)
Latitude
0.00001°
Longitude
-77.4292°
Altitude
35,738.807 km
Speed
3.075 km/s
True Right ascension
01h 41m 58s
True Declination
0° 00' 00"
Sunlit
Object was in daylight at epoch
Visualization orbit readout
Latitude
Unknown
Longitude
Unknown
Altitude
Unknown
Speed
Unknown
Apparent Right ascension
Unknown
Apparent Declination
Unknown
Sunlit
N/A
Visualization observer readout
Local Sidereal Time
12:30:10
Azimuth
Unknown
Elevation
Unknown
Doppler factor
Unknown
Orbital elements
Apogee altitude
35,758.147 km
Perigee altitude
35,633.356 km
Semi-major axis
42,073.889 km
Eccentricity
0.00148
Inclination
16.4913°
RAAN
25.4881°
Arg. of periapsis
224.3717°
True anomaly
135.65149°
Mean anomaly
135.5326°
Eccentric anomaly
135.59206°
Mean motion
0.25149 °/min
Orbital period
1,431.46 mins
BSTAR
0
Loading maneuver chart data...
Computing Atmospheric mass density...
Loading historical data...
Loading historical data...
Loading historical data...
Loading historical data...
Loading historical data...
Loading historical data...
Loading historical data...
Other satellites on launch #9 in the year 1994 (1994-02-07 UTC)

Documentation

Showing up to 5 results
|